This is the latest recevied weather packets stored in our database for station/object WA1OUI. If no packets are shown the sender has not sent any weather packets the latest 1 day(s).
| Time | Temp. | Humidity | Pressure | Rain* | Wind** | Luminosity | Snow |
|---|---|---|---|---|---|---|---|
| 1778044246 | 14.44° C | 80% | 1008.3 hPa | 0 mm | 1.34 m/s, 345° | 0 W/m² | - |
| 1778043944 | 14.44° C | 80% | 1008.1 hPa | 0 mm | 1.34 m/s, 338° | 0 W/m² | - |
| 1778043641 | 14.44° C | 81% | 1008.1 hPa | 0 mm | 0.89 m/s, 336° | 0 W/m² | - |
| 1778043337 | 14.44° C | 80% | 1008.1 hPa | 0 mm | 0.89 m/s, 344° | 0 W/m² | - |
| 1778043034 | 14.44° C | 81% | 1008.1 hPa | 0 mm | 0.89 m/s, 334° | 0 W/m² | - |
| 1778042732 | 14.44° C | 81% | 1008.3 hPa | 0 mm | 0.89 m/s, 346° | 0 W/m² | - |
| 1778042429 | 15° C | 80% | 1008.1 hPa | 0 mm | 0.89 m/s, 346° | 0 W/m² | - |
| 1778042126 | 15° C | 80% | 1008.2 hPa | 0 mm | 0.89 m/s, 319° | 0 W/m² | - |
| 1778041824 | 15° C | 80% | 1008.2 hPa | 0 mm | 0.89 m/s, 356° | 0 W/m² | - |
| 1778041523 | 15° C | 80% | 1008.1 hPa | 0 mm | 0.89 m/s, 342° | 0 W/m² | - |
| 1778041221 | 15° C | 81% | 1008.3 hPa | 0 mm | 0.89 m/s, 353° | 0 W/m² | - |
| 1778040919 | 15° C | 80% | 1008.2 hPa | 0 mm | 0.89 m/s, 336° | 0 W/m² | - |
| 1778040615 | 15° C | 78% | 1008.2 hPa | 0 mm | 1.34 m/s, 339° | 0 W/m² | - |
| 1778040313 | 15° C | 78% | 1008.2 hPa | 0 mm | 0.89 m/s, 340° | 0 W/m² | - |
| 1778040009 | 15° C | 78% | 1008.2 hPa | 0 mm | 0.89 m/s, 343° | 0 W/m² | - |
| 1778039706 | 15° C | 77% | 1008.2 hPa | 0 mm | 0.89 m/s, 319° | 0 W/m² | - |
| 1778039403 | 15° C | 77% | 1008.4 hPa | 0 mm | 1.34 m/s, 335° | 0 W/m² | - |
| 1778039100 | 15° C | 77% | 1008.3 hPa | 0 mm | 0.89 m/s, 339° | 0 W/m² | - |
| 1778038797 | 15° C | 77% | 1008.4 hPa | 0 mm | 0.89 m/s, 344° | 0 W/m² | - |
| 1778038495 | 15° C | 77% | 1008.3 hPa | 0 mm | 0.89 m/s, 338° | 0 W/m² | - |
| 1778038191 | 15° C | 76% | 1008.3 hPa | 0 mm | 1.34 m/s, 338° | 0 W/m² | - |
| 1778037889 | 15° C | 75% | 1008.4 hPa | 0 mm | 0.89 m/s, 333° | 0 W/m² | - |
| 1778037584 | 15° C | 75% | 1008.2 hPa | 0 mm | 0.89 m/s, 351° | 0 W/m² | - |
| 1778037282 | 15.56° C | 75% | 1008.4 hPa | 0 mm | 0.89 m/s, 334° | 0 W/m² | - |
| 1778036980 | 15.56° C | 74% | 1008.4 hPa | 0 mm | 0.89 m/s, 348° | 0 W/m² | - |
* Rain latest hour (hover to see other rain measurements)
** Current wind speed in m/s (hover to see current wind gust speed)